Location: ??????
(56.0120°N, 39.1740°E)
Time: 06:21:49
(UTC+00:00)

Meteor 2-10 - Pass Details

Date: 14 April 2026
Orbit: 737 x 865 km, 81.2° (Epoch: 10 May)

Event Time Altitude Azimuth Distance (km) Brightness Sun altitude
Rises 22:30:09 0° 346° (NNW) 3,273 8.2 -22.9°
Reaches altitude 10° 22:32:31 10° 349° (N) 2,360 7.4 -22.8°
Maximum altitude 22:37:49 64° 71° (ENE) 897 4.4 -22.5°
Enters shadow 22:40:27 31° 143° (SE) 1,413 5.1 -22.4°
